Overview Statistics Trail Chart Weather Telemetry Raw packets
 

This is the latest recevied weather packets stored in our database for station/object WD7OO. If no packets are shown the sender has not sent any weather packets the latest 10 day(s).

<< 59 60 61 62 63 64 65 >>
Time Temp. Humidity Pressure Rain* Wind** Luminosity Snow
1788220300 27.22° C 82% 1014.3 hPa 1.27 mm - 1 W/m² -
1788219999 27.22° C 81% 1014.3 hPa 1.27 mm - 0 W/m² -
1788219695 26.67° C 83% 1014.2 hPa 0 mm - 0 W/m² -
1788219390 26.67° C 87% 1014.1 hPa 0 mm - 0 W/m² -
1788219086 26.67° C 86% 1014.2 hPa 0 mm - 0 W/m² -
1788218781 26.67° C 87% 1014.4 hPa 0 mm - 0 W/m² -
1788218476 26.67° C 87% 1014.5 hPa 0 mm - 2 W/m² -
1788218173 26.67° C 88% 1014.5 hPa 0 mm - 3 W/m² -
1788217876 26.67° C 88% 1014 hPa 0 mm - 4 W/m² -
1788217564 26.67° C 88% 1014.2 hPa 0 mm - 5 W/m² -
1788217264 26.67° C 88% 1014 hPa 0 mm - 6 W/m² -
1788216961 26.11° C 89% 1014.1 hPa 0 mm - 9 W/m² -
1788216653 26.11° C 89% 1014.1 hPa 0 mm - 10 W/m² -
1788216349 26.11° C 89% 1014.4 hPa 0 mm - 9 W/m² -
1788216044 26.67° C 88% 1014.7 hPa 0 mm - 6 W/m² -
1788215739 26.67° C 89% 1015.1 hPa 0 mm - 5 W/m² -
1788215435 26.11° C 90% 1015.4 hPa 0 mm - 7 W/m² -
1788215131 26.11° C 92% 1015.8 hPa 0 mm - 10 W/m² -
1788214831 26.11° C 92% 1016.2 hPa 0 mm - 14 W/m² -
1788214527 26.11° C 92% 1016.4 hPa 0 mm - 26 W/m² -
1788214222 26.67° C 90% 1016.1 hPa 0 mm - 28 W/m² -
1788213917 27.22° C 89% 1016.2 hPa 0 mm - 28 W/m² -
1788213612 27.22° C 87% 1015.9 hPa 0 mm - 31 W/m² -
1788213308 27.78° C 84% 1015.9 hPa 0 mm - 28 W/m² -
1788213003 27.78° C 82% 1015.5 hPa 0 mm - 26 W/m² -

* Rain latest hour (hover to see other rain measurements)
** Current wind speed in m/s (hover to see current wind gust speed)